TIME,DELAY(SENSOR),PRES,OXYGEN,RAWTEMP,T(OPTODE),TCPHASE,FLUOR,BETA(BETA700),BETA(BETA412),BETA(BETA440),CDOM,C(CSC),ED(ED412.40),ED(ED444.00),ED(ED489.70),ED(ED554.30),LU(LU411.80),LU(LU443.40),LU(LU489.60),LU(LU554.10),COMP,TILTX,TILTY,CHECK
1371268479,5809,772.8400268554688000,42.4038200378418000,655.3917846679688000,4.7795658111572270,54.5866813659668000,54,100,88,79,79,14842,2147755574,2147426130,2148008036,2147873664,2147640694,2147055012,2148258422,2147194230,1805,4,13,18991
1371272075,5809,807.2999877929688000,45.3999099731445300,661.0883178710938000,4.5921378135681150,54.2150306701660160,53,104,86,82,79,14846,2147757504,2147425170,2148011401,2147875995,2147641444,2147056576,2148260708,2147197467,3535,4,13,10940
1371275675,5809,820.2899780273438000,45.0719299316406250,660.7597045898438000,4.6029591560363770,54.2539482116699200,52,99,86,79,79,14848,2147756086,2147423442,2148008676,2147872786,2147639286,2147053568,2148253952,2147200566,466,4,13,6711
1371279275,5809,835.9799804687500000,46.5748214721679700,662.0944213867188000,4.5589981079101560,54.0538711547851560,53,98,86,78,79,14845,2147754240,2147424109,2148009197,2147875785,2147642752,2147058569,2148252772,2147197147,106,4,13,10046
1371282875,5810,843.7800292968750000,46.3521385192871100,661.8300781250000000,4.5677051544189450,54.0821685791015600,53,98,87,80,79,14845,2147756653,2147425344,2148009645,2147875904,2147639734,2147057408,2148258514,2147198436,3165,4,13,27299
1371286475,5810,843.3400268554688000,46.3942298889160160,662.0847778320312000,4.5593109130859375,54.0828094482421900,52,98,85,79,80,14835,2147754697,2147427611,2148009481,2147870317,2147641508,2147053805,2148258276,2147197010,2,4,13,4520
1371290075,5810,876.2000122070312000,47.6573486328125000,664.6746826171875000,4.4739508628845215,53.9292297363281250,52,98,83,78,80,14837,2147757403,2147426066,2148013851,2147874395,2147642203,2147058998,2148255744,2147194212,2977,4,13,36908
1371293675,5808,871.5900268554688000,47.7013511657714840,664.8782958984375000,4.4672389030456540,53.9285392761230500,53,106,87,78,79,14842,2147756425,2147429147,2148010587,2147877677,2147642642,2147062290,2148259172,2147198400,3377,4,13,29939
1371297275,5810,873.1199951171875000,47.7628402709960940,665.6979980468750000,4.4402050971984860,53.9287605285644500,53,97,83,78,80,14833,2147757622,2147427273,2148008356,2147875492,2147641956,2147052068,2148261037,2147196845,56,4,13,357
1371300875,5808,892.8699951171875000,48.6681594848632800,668.1047973632812000,4.3607831001281740,53.8309898376464840,52,98,86,80,79,14840,2147756525,2147425755,2148011318,2147876507,2147643300,2147054454,2148258459,2147194605,129,4,13,50298
1371304475,5811,888.6300048828125000,47.2478599548339840,669.5332031250000000,4.3136157989501950,54.0460281372070300,53,99,84,79,81,14843,2147755940,2147424731,2148011510,2147876617,2147640045,2147052992,2148258925,2147199771,582,4,13,54938
1371308075,5807,893.7100219726562000,47.5029487609863300,670.0198974609375000,4.2975392341613770,54.0227813720703100,53,102,88,79,80,14837,2147757184,2147426560,2148013147,2147875657,2147640713,2147056813,2148254336,2147198537,9,4,13,29924
1371311675,5808,923.4299926757812000,47.8630409240722660,671.9575195312500000,4.2335128784179690,53.9916496276855500,52,98,88,79,81,14838,2147760045,2147425261,2148010660,2147875748,2147639990,2147052096,2148259520,2147197833,111,4,13,13564
1371315275,5806,929.7399902343750000,48.3318901062011700,671.2324829101562000,4.2574729919433590,53.9160499572753900,52,100,88,78,79,14838,2147754761,2147427373,2148008804,2147877778,2147644845,2147055753,2148258569,2147196425,3379,4,13,15303
1371318875,5808,927.7100219726562000,48.1455993652343750,671.7794799804688000,4.2393951416015625,53.9478988647460940,53,97,84,78,80,14837,2147756525,2147427702,2148011794,2147874688,2147644809,2147055131,2148259163,2147199478,3548,4,13,4125
1371322475,5806,948.7399902343750000,48.9461097717285160,674.6721801757812000,4.1437320709228520,53.8783416748046900,52,97,84,78,79,14829,2147756928,2147425938,2148012754,2147876516,2147643337,2147054482,2148258633,2147195401,478,4,13,56674
1371326075,5808,952.4600219726562000,49.4102706909179700,674.7531127929688000,4.1410579681396480,53.8110389709472660,52,98,85,78,79,14831,2147759963,2147427657,2148013357,2147877238,2147644406,2147052507,2148259328,2147194596,3201,4,13,56514
1371329675,5811,945.8099975585938000,49.4890518188476560,675.5933837890625000,4.1132488250732420,53.8117904663085940,53,99,91,78,81,14829,2147757403,2147428160,2148012882,2147874779,2147645302,2147048073,2148259373,2147194742,204,4,13,34714
1371333275,5808,969.2500000000000000,50.0366096496582000,677.2172851562500000,4.0594878196716310,53.7576484680175800,53,100,87,78,80,14830,2147757997,2147423643,2148010221,2147877010,2147645750,2147051044,2148263094,2147195830,343,4,13,47199
1371336875,5807,980.1500244140625000,50.2337493896484400,677.4564208984375000,4.0515689849853520,53.7356185913085940,52,97,85,79,80,14802,2147757120,2147421705,2148012891,2147877942,2147644160,2147049325,2148257545,2147196928,3577,4,13,39294
1371340475,5812,981.0900268554688000,50.0407981872558600,677.5855102539062000,4.0472931861877440,53.7593498229980500,53,98,86,79,80,14801,2147757403,2147424210,2148008621,2147877403,2147641371,2147052662,2148260068,2147195236,59,4,13,3895
1371344075,5806,979.3300170898438000,49.8843383789062500,676.9885253906250000,4.0670619010925290,53.7754402160644500,52,99,87,78,79,14802,2147753636,2147424027,2148009307,2147875803,2147641865,2147050742,2148263561,2147199469,3546,4,13,43073
1371347675,5805,977.0000000000000000,50.3320388793945300,676.9874267578125000,4.0670990943908690,53.7155990600585940,53,100,85,79,80,14800,2147754770,2147426962,2148013092,2147879158,2147642898,2147056685,2148263104,2147197714,3491,4,13,15468
1371351275,5807,976.0000000000000000,51.7544517517089840,678.0872802734375000,4.0306701660156250,53.5302391052246100,52,103,84,79,79,14801,2147755474,2147428580,2148011492,2147877412,2147644836,2147054683,2148260425,2147201270,3553,4,13,62555
1371354875,5806,974.3400268554688000,52.1424789428710940,677.8333740234375000,4.0390801429748535,53.4775390625000000,52,97,85,77,79,14802,2147756324,2147428105,2148012086,2147876434,2147644123,2147053622,2148262729,2147200100,3591,4,13,56733
1371358475,5806,975.0599975585938000,50.5031013488769500,677.5529174804688000,4.0483741760253910,53.6983909606933600,53,98,85,79,80,14796,2147758217,2147425718,2148010651,2147874102,2147644516,2147051062,2148264493,2147198838,3425,4,13,681
1371362075,5810,978.0200195312500000,50.3091392517089840,677.7733764648438000,4.0410671234130860,53.7234191894531250,52,98,89,79,81,14791,2147753645,2147427602,2148008822,2147874276,2147643958,2147053412,2148254976,2147194258,86,4,13,49524
1371365675,5808,987.5200195312500000,49.8802909851074200,676.7606201171875000,4.0746078491210940,53.7731094360351560,51,100,87,78,81,14790,2147757732,2147425956,2148009526,2147874944,2147644644,2147053549,2148261650,2147198134,560,4,13,26942
1371369275,5808,982.8099975585938000,49.6510391235351560,676.4699707031250000,4.0842299461364750,53.7997283935546900,52,98,89,78,78,14793,2147758518,2147427657,2148013193,2147876032,2147643108,2147049590,2148264941,2147197193,3219,4,13,30794
1371372875,5808,984.8800048828125000,49.8425102233886700,676.4879150390625000,4.0836391448974610,53.7750396728515600,52,98,88,79,80,14791,2147759286,2147429046,2148009298,2147874276,2147639872,2147049526,2148261750,2147195337,142,4,13,49649
1371376475,5808,983.4400024414062000,49.4208717346191400,677.0850219726562000,4.0638661384582520,53.8363990783691400,52,99,86,77,81,14792,2147758052,2147429750,2148008813,2147872758,2147642916,2147046857,2148263067,2147196004,2669,4,13,42138
1371380075,5809,982.1599731445312000,50.0039291381835940,677.2644042968750000,4.0579261779785160,53.7617607116699200,53,100,86,78,80,14787,2147753398,2147425865,2148010624,2147874176,2147643456,2147052571,2148264832,2147197952,3330,4,13,17169
1371383675,5809,982.8400268554688000,49.9994010925293000,677.4373168945312000,4.0522022247314450,53.7609901428222660,52,99,89,78,80,14789,2147755017,2147426157,2148012288,2147876132,2147643730,2147051602,2148260105,2147196480,166,4,13,29604
1371387275,5807,980.7199707031250000,49.9751396179199200,677.8645019531250000,4.0380501747131350,53.7765007019043000,52,98,84,78,80,14792,2147754358,2147423625,2148013979,2147874386,2147643053,2147048246,2148256566,2147196406,3431,4,13,18183
1371390875,5806,969.1099853515625000,54.3832893371582000,678.1937866210938000,4.0271430015563965,53.1796302795410160,53,100,87,78,80,14796,2147757595,2147426432,2148013787,2147873508,2147644580,2147050852,2148265115,2147194505,155,4,13,15386
1371394475,5809,983.0499877929688000,53.5805397033691400,678.0972900390625000,4.0303401947021480,53.2909812927246100,53,97,88,79,79,14787,2147757440,2147423798,2148012022,2147874368,2147639643,2147057901,2148261293,2147192292,3338,4,13,64970
1371398075,5808,984.9799804687500000,51.2820816040039060,677.7738037109375000,4.0410561561584470,53.5958213806152340,52,96,85,79,79,14791,2147756352,2147423762,2148010852,2147874806,2147647817,2147060077,2148258121,2147193298,255,4,13,44383
1371401675,5808,988.2600097656250000,52.1638603210449200,677.8233032226562000,4.0394148826599120,53.4740982055664060,52,99,84,78,79,14788,2147756946,2147427026,2148012425,2147876160,2147644937,2147050459,2148263250,2147195053,3404,4,13,49207
1371405275,5809,986.2999877929688000,50.4859008789062500,677.3568115234375000,4.0548667907714840,53.6995506286621100,53,110,89,78,80,14787,2147755913,2147425490,2148009014,2147875126,2147639917,2147050550,2148258285,2147195840,352,4,13,34978
1371408875,5806,983.7399902343750000,49.7669982910156250,677.3203125000000000,4.0560779571533200,53.7930793762207000,52,100,83,79,79,14788,2147757915,2147427346,2148009216,2147876644,2147642605,2147056676,2148262793,2147194953,333,4,13,52113
1371412475,5810,982.3099975585938000,49.9300003051757800,677.8991699218750000,4.0369000434875490,53.7820091247558600,52,101,80,80,80,14789,2147755913,2147424493,2148012397,2147876324,2147639707,2147056438,2148259730,2147196964,41,4,13,25698
1371413455,5805,991.4000244140625000,50.4802703857421900,677.6953125000000000,4.0436568260192870,53.7025489807128900,53,101,90,78,81,14804,2147757897,2147427218,2148011081,2147872713,2147642752,2147056192,2148264996,2147194477,310,4,13,14825
